Meteo pe oră la Bolshie Selyutichi

Astăzi, 9 Mai, Duminică

Timp Temperatura Precipitaţii Vânt Presiune Umiditate
00:00 +2°C° 0 mm 2 m/s 751 mmHg 86%
01:00 +2°C° 0 mm 2 m/s 751 mmHg 88%
02:00 +1°C° 0 mm 2 m/s 751 mmHg 91%
03:00 +1°C° 0 mm 2 m/s 752 mmHg 92%
04:00 +1°C° 0 mm 2 m/s 752 mmHg 93%
05:00 +1°C° 0 mm 2 m/s 753 mmHg 93%
06:00 +3°C° 0 mm 2 m/s 753 mmHg 84%
07:00 +5°C° 0 mm 2 m/s 754 mmHg 74%
08:00 +7°C° 0 mm 2 m/s 754 mmHg 64%
09:00 +9°C° 0 mm 2 m/s 755 mmHg 58%
10:00 +10°C° 0 mm 2 m/s 755 mmHg 53%
11:00 +12°C° 0 mm 2 m/s 755 mmHg 47%
12:00 +13°C° 0 mm 2 m/s 755 mmHg 45%
13:00 +14°C° 0 mm 2 m/s 755 mmHg 42%
14:00 +15°C° 0 mm 2 m/s 755 mmHg 39%
15:00 +15°C° 0 mm 2 m/s 755 mmHg 40%
16:00 +15°C° 0 mm 2 m/s 755 mmHg 41%
17:00 +14°C° 0 mm 2 m/s 755 mmHg 42%
18:00 +13°C° 0 mm 2 m/s 755 mmHg 48%
19:00 +11°C° 0 mm 1 m/s 755 mmHg 55%
20:00 +9°C° 0 mm 1 m/s 756 mmHg 61%
21:00 +8°C° 0 mm 1 m/s 756 mmHg 63%
22:00 +7°C° 0 mm 2 m/s 756 mmHg 65%
23:00 +6°C° 0 mm 2 m/s 756 mmHg 67%

Mâine, 10 Mai, Luni

Timp Temperatura Precipitaţii Vânt Presiune Umiditate
00:00 +6°C° 0 mm 2 m/s 756 mmHg 69%
01:00 +5°C° 0 mm 2 m/s 756 mmHg 71%
02:00 +5°C° 0 mm 2 m/s 757 mmHg 73%
03:00 +5°C° 0 mm 2 m/s 757 mmHg 74%
04:00 +5°C° 0 mm 2 m/s 757 mmHg 75%
05:00 +5°C° 0 mm 2 m/s 757 mmHg 76%
06:00 +7°C° 0 mm 2 m/s 757 mmHg 69%
07:00 +9°C° 0 mm 3 m/s 757 mmHg 61%
08:00 +12°C° 0 mm 3 m/s 758 mmHg 54%
09:00 +13°C° 0 mm 3 m/s 757 mmHg 50%
10:00 +16°C° 0 mm 3 m/s 757 mmHg 46%
11:00 +17°C° 0 mm 4 m/s 757 mmHg 42%
12:00 +18°C° 0 mm 4 m/s 757 mmHg 41%
13:00 +19°C° 0 mm 4 m/s 757 mmHg 40%
14:00 +19°C° 0 mm 4 m/s 757 mmHg 39%
15:00 +19°C° 0 mm 3 m/s 756 mmHg 41%
16:00 +19°C° 0 mm 3 m/s 756 mmHg 43%
17:00 +19°C° 0 mm 3 m/s 756 mmHg 46%
18:00 +16°C° 0 mm 3 m/s 756 mmHg 54%
19:00 +13°C° 0 mm 3 m/s 756 mmHg 63%
20:00 +11°C° 0 mm 3 m/s 756 mmHg 71%
21:00 +10°C° 0 mm 3 m/s 757 mmHg 73%
22:00 +9°C° 0 mm 3 m/s 757 mmHg 75%
23:00 +9°C° 0 mm 3 m/s 757 mmHg 76%

Poimâine, 11 Mai, Marţi

Timp Temperatura Precipitaţii Vânt Presiune Umiditate
00:00 +8°C° 0 mm 3 m/s 757 mmHg 77%
01:00 +7°C° 0 mm 3 m/s 757 mmHg 77%
02:00 +7°C° 0 mm 2 m/s 757 mmHg 78%
03:00 +7°C° 0 mm 2 m/s 757 mmHg 77%
04:00 +6°C° 0 mm 2 m/s 757 mmHg 77%
05:00 +6°C° 0 mm 2 m/s 757 mmHg 77%
06:00 +8°C° 0 mm 3 m/s 757 mmHg 69%
07:00 +10°C° 0 mm 3 m/s 757 mmHg 62%
08:00 +12°C° 0 mm 4 m/s 757 mmHg 54%
09:00 +14°C° 0 mm 4 m/s 756 mmHg 49%
10:00 +15°C° 0 mm 4 m/s 756 mmHg 43%
11:00 +18°C° 0 mm 4 m/s 756 mmHg 38%
12:00 +18°C° 0 mm 4 m/s 755 mmHg 36%
13:00 +19°C° 0 mm 4 m/s 755 mmHg 35%
14:00 +20°C° 0 mm 4 m/s 755 mmHg 34%
15:00 +19°C° 0 mm 4 m/s 754 mmHg 38%
16:00 +19°C° 0 mm 4 m/s 754 mmHg 42%
17:00 +19°C° 0 mm 4 m/s 754 mmHg 46%
18:00 +17°C° 0 mm 3 m/s 754 mmHg 56%
19:00 +14°C° 0 mm 3 m/s 753 mmHg 65%
20:00 +12°C° 0 mm 3 m/s 753 mmHg 75%
21:00 +12°C° 0 mm 3 m/s 753 mmHg 79%
22:00 +11°C° 0 mm 3 m/s 753 mmHg 83%
23:00 +11°C° 0 mm 3 m/s 753 mmHg 87%

12 Mai, Miercuri

Timp Temperatura Precipitaţii Vânt Presiune Umiditate
00:00 +10°C° 0 mm 3 m/s 753 mmHg 90%
01:00 +10°C° 0 mm 3 m/s 753 mmHg 93%
02:00 +10°C° 0 mm 3 m/s 753 mmHg 96%
03:00 +9°C° 0 mm 2 m/s 752 mmHg 97%
04:00 +8°C° 0 mm 2 m/s 752 mmHg 97%
05:00 +8°C° 0 mm 2 m/s 752 mmHg 97%
06:00 +9°C° 0 mm 2 m/s 752 mmHg 92%
07:00 +10°C° 0 mm 2 m/s 752 mmHg 87%
08:00 +12°C° 0 mm 2 m/s 752 mmHg 82%
09:00 +12°C° 0 mm 2 m/s 751 mmHg 83%
10:00 +12°C° 0 mm 2 m/s 751 mmHg 84%
11:00 +12°C° 0 mm 2 m/s 751 mmHg 84%
12:00 +13°C° 0 mm 2 m/s 750 mmHg 78%
13:00 +13°C° 0 mm 3 m/s 750 mmHg 72%
14:00 +14°C° 0 mm 4 m/s 749 mmHg 65%
15:00 +13°C° 0.1 mm 4 m/s 749 mmHg 69%
16:00 +13°C° 0.1 mm 4 m/s 749 mmHg 72%
17:00 +12°C° 0.1 mm 5 m/s 749 mmHg 76%
18:00 +12°C° 0 mm 4 m/s 749 mmHg 78%
19:00 +11°C° 0 mm 4 m/s 749 mmHg 81%
20:00 +10°C° 0 mm 4 m/s 749 mmHg 83%
21:00 +10°C° 0 mm 4 m/s 748 mmHg 85%
22:00 +8°C° 0 mm 4 m/s 748 mmHg 86%
23:00 +9°C° 0 mm 3 m/s 748 mmHg 88%

13 Mai, Joi

Timp Temperatura Precipitaţii Vânt Presiune Umiditate
00:00 +9°C° 0 mm 3 m/s 748 mmHg 89%
01:00 +9°C° 0 mm 3 m/s 747 mmHg 91%
02:00 +9°C° 0 mm 3 m/s 747 mmHg 92%
03:00 +9°C° 0 mm 3 m/s 747 mmHg 93%
04:00 +9°C° 0 mm 3 m/s 746 mmHg 94%
05:00 +8°C° 0 mm 2 m/s 746 mmHg 94%
06:00 +9°C° 0.2 mm 2 m/s 746 mmHg 94%
07:00 +9°C° 0.2 mm 2 m/s 745 mmHg 93%
08:00 +9°C° 0.2 mm 2 m/s 745 mmHg 93%
09:00 +10°C° 0.4 mm 2 m/s 745 mmHg 86%
10:00 +13°C° 0.4 mm 2 m/s 744 mmHg 79%
11:00 +13°C° 0.4 mm 3 m/s 744 mmHg 72%
12:00 +13°C° 0.4 mm 3 m/s 744 mmHg 67%
13:00 +14°C° 0.4 mm 3 m/s 744 mmHg 62%
14:00 +16°C° 0.4 mm 3 m/s 744 mmHg 58%
15:00 +14°C° 0.2 mm 4 m/s 744 mmHg 62%
16:00 +14°C° 0.2 mm 5 m/s 744 mmHg 66%
17:00 +13°C° 0.2 mm 5 m/s 744 mmHg 70%
18:00 +12°C° 0.1 mm 5 m/s 744 mmHg 77%
19:00 +9°C° 0.1 mm 5 m/s 744 mmHg 84%
20:00 +8°C° 0.1 mm 4 m/s 745 mmHg 91%
21:00 +8°C° 0.4 mm 4 m/s 745 mmHg 92%
22:00 +8°C° 0.4 mm 4 m/s 745 mmHg 94%
23:00 +8°C° 0.4 mm 4 m/s 744 mmHg 96%

14 Mai, Vineri

Timp Temperatura Precipitaţii Vânt Presiune Umiditate
00:00 +9°C° 0.1 mm 3 m/s 744 mmHg 96%
01:00 +9°C° 0.1 mm 3 m/s 744 mmHg 96%
02:00 +10°C° 0.1 mm 3 m/s 744 mmHg 96%
03:00 +10°C° 0 mm 3 m/s 744 mmHg 96%
04:00 +9°C° 0 mm 3 m/s 744 mmHg 96%
05:00 +9°C° 0 mm 2 m/s 744 mmHg 96%
06:00 +10°C° 0 mm 2 m/s 744 mmHg 95%
07:00 +10°C° 0 mm 2 m/s 744 mmHg 93%
08:00 +12°C° 0 mm 2 m/s 744 mmHg 92%
09:00 +13°C° 0 mm 2 m/s 745 mmHg 86%
10:00 +14°C° 0 mm 3 m/s 745 mmHg 81%
11:00 +16°C° 0 mm 3 m/s 745 mmHg 75%
12:00 +17°C° 0 mm 3 m/s 745 mmHg 69%
13:00 +19°C° 0 mm 2 m/s 745 mmHg 64%
14:00 +20°C° 0 mm 2 m/s 744 mmHg 58%
15:00 +20°C° 0.2 mm 2 m/s 744 mmHg 60%
16:00 +19°C° 0.2 mm 2 m/s 744 mmHg 63%
17:00 +19°C° 0.2 mm 2 m/s 744 mmHg 65%
18:00 +18°C° 0.1 mm 2 m/s 744 mmHg 72%
19:00 +16°C° 0.1 mm 2 m/s 744 mmHg 79%
20:00 +14°C° 0.1 mm 1 m/s 744 mmHg 85%
21:00 +14°C° 0.1 mm 1 m/s 744 mmHg 88%
22:00 +13°C° 0.1 mm 2 m/s 744 mmHg 91%
23:00 +13°C° 0.1 mm 2 m/s 744 mmHg 95%
Arată mai mult

Formular de consimțământ

Meteoprog și furnizorii noștri de servicii pot stoca și accesa date personale, precum cookies, identificatori de dispozitiv sau alte tehnologii similare pe dispozitivul dumneavoastră și procesa astfel de date pentru a personaliza conținutul și reclamele, dar și pentru a oferi caracteristici de social media și pentru a analiza traficul.

  • Stocarea și/sau accesarea informațiilor pe dispozitivul dumneavoastră

    Cookies, identificatori de dispozitiv sau alte informații pot fi stocate sau accesate pe dispozitiv în scopurile indicate mai sus.

  • Reclame și conținut personalizat, evaluarea reclamelor și a conținutului, informații despre audiențe și dezvoltarea produselor

    Reclamele și conținutul pot fi personalizate pe baza unui profil. Pot fi adăugate date suplimentare pentru a personaliza mai bine reclamele și conținutul. Performanța reclamelor și conținutului poate fi măsurată. Pot fi obținute informații despre utilizatorii care au văzut reclamele și conținutul. Aceste date pot fi utilizate pentru a dezvolta sau îmbunătăți experiența utilizatorilor, sistemele și software-ul.

Dând clic pe ‘Sunt de acord’, permiteți utilizarea cookie-urilor menționate, a identificatorilor de dispozitiv, balizelor web sau altor tehnologii similare. Setările pot fi modificate din browser-ul dispozitivului dumneavoastră.

În anumite scopuri, interesele legitime pot prima asupra consimțământului. Puteți citi mai multe informații în acest sens în Politica privind Confidențialitatea Datelor și Cookie.